• Join FlightAware (Why Join?)
  • Login
  • US Flag 
02:52PM EDT


 

Airport Tracker/Info


-or-


 

Live Flight TrackerFlight Track Log ✈ UAL395 ✈ 22-Jun-2013 ✈ KIAD - KORD

Flight Track Log - Related Links

Times and Time Zones

All times are in EDT time to prevent confusion due to time zone crossing. See the UAL395 flight status page for this flight to view local times or setup timezone preferences in your user account.

Time Position Orientation Groundspeed Altitude Reporting Facility
EDT Latitude Longitude Course Direction KTS MPH feet Rate Location/Type
10:24PM 38.9167 -77.4500 288° West 170 196 1,800  Level Potomac TRACON
10:26PM 38.8467 -77.5986 239° Southwest 246 283 6,400 2,520 Climbing Washington Center
10:27PM 38.8594 -77.7031 279° West 285 328 9,700 2,460 Climbing Washington Center
10:28PM 38.8658 -77.8178 274° West 310 357 11,300 1,680 Climbing Washington Center
10:29PM 38.8928 -77.9333 287° West 354 407 13,200 2,100 Climbing Washington Center
10:30PM 38.9116 -78.0797 288° West  Level FlightAware Approximate
10:30PM 38.9236 -78.0597 287° West 368 423 15,600  Level Washington Center
10:31PM 38.9542 -78.1917 287° West 381 438 17,700 1,860 Climbing Washington Center
10:32PM 38.9656 -78.3281 276° West 386 444 19,400 1,740 Climbing Washington Center
10:33PM 38.9686 -78.4725 272° West 399 459 21,300 1,680 Climbing Washington Center
10:34PM 38.9733 -78.6194 272° West 405 466 22,900 1,440 Climbing Washington Center
10:35PM 38.9778 -78.7664 272° West 415 478 24,200 1,260 Climbing Washington Center
10:36PM 38.9822 -78.9164 272° West 420 483 25,500 1,320 Climbing Washington Center
10:37PM 38.9861 -79.0714 272° West 425 489 26,900 1,260 Climbing Washington Center
10:38PM 38.9919 -79.2292 273° West 436 502 28,000 1,080 Climbing Washington Center
10:39PM 38.9953 -79.3897 272° West 443 510 29,100 900 Climbing Washington Center
10:40PM 38.9983 -79.5528 271° West 453 521 29,900 900 Climbing Washington Center
10:41PM 39.0008 -79.7267 271° West 478 550 31,000 1,320 Climbing Washington Center
10:42PM 39.0019 -79.9167 270° West 465 535 32,600 1,200 Climbing Indianapolis Center
10:43PM 39.0044 -80.0744 271° West 458 527 33,500 720 Climbing Indianapolis Center
10:44PM 39.0064 -80.2214 271° West 460 529 34,100 540 Climbing Indianapolis Center
10:45PM 39.0086 -80.3875 271° West 463 533 34,700 600 Climbing Indianapolis Center
10:47PM 39.0108 -80.5553 271° West 469 540 35,400 480 Climbing Indianapolis Center
10:48PM 39.0150 -80.7256 272° West 476 548 35,700 240 Climbing Indianapolis Center
10:49PM 39.0589 -80.9219 286° West 478 550 36,000 120 Climbing Indianapolis Center
10:50PM 39.1222 -81.0758 298° West 487 560 36,000  Level Indianapolis Center
10:51PM 39.1850 -81.2281 298° West 486 559 36,000  Level Indianapolis Center
10:52PM 39.2478 -81.3792 298° West 484 557 36,000  Level Indianapolis Center
10:53PM 39.3100 -81.5322 298° West 484 557 36,000  Level Indianapolis Center
10:54PM 39.3725 -81.6869 298° West 487 560 36,000  Level Indianapolis Center
10:55PM 39.4344 -81.8422 297° West 488 562 36,000  Level Indianapolis Center
10:56PM 39.4975 -81.9983 298° West 491 565 36,000  Level Indianapolis Center
10:57PM 39.5633 -82.1656 297° West 491 565 36,000  Level Indianapolis Center
10:58PM 39.6264 -82.3244 297° West 490 564 36,000  Level Indianapolis Center
10:59PM 39.6903 -82.4842 298° West 494 568 36,000  Level Indianapolis Center
11:00PM 39.7533 -82.6447 297° West 495 570 36,000  Level Indianapolis Center
11:01PM 39.8164 -82.8058 297° West 498 573 36,000 -60 Level Indianapolis Center
11:02PM 39.8781 -82.9656 297° West 492 566 35,900 -60 Descending Indianapolis Center
11:03PM 39.9400 -83.1253 297° West 492 566 35,900  Level Indianapolis Center
11:04PM 40.0025 -83.2842 297° West 494 568 36,000  Climbing Indianapolis Center
11:05PM 40.0628 -83.4436 296° West 493 567 36,000 -60 Level Indianapolis Center
11:06PM 40.1233 -83.6033 296° West 493 567 35,900 -60 Descending Indianapolis Center
11:07PM 40.1836 -83.7619 296° West 488 562 35,900  Level Indianapolis Center
11:08PM 40.2433 -83.9217 296° West 486 559 35,900  Level Indianapolis Center
11:09PM 40.3083 -84.0767 299° West 484 557 35,900  Level Indianapolis Center
11:10PM 40.3944 -84.2150 309° West 486 559 36,000  Climbing Indianapolis Center
11:11PM 40.4794 -84.3542 309° West 485 558 36,000  Level Indianapolis Center
11:12PM 40.5642 -84.4942 309° West 484 557 36,000 -60 Level Indianapolis Center
11:13PM 40.6503 -84.6358 309° West 490 564 35,900  Descending Indianapolis Center
11:14PM 40.7342 -84.7764 308° West 486 559 36,000  Climbing Indianapolis Center
11:15PM 40.7992 -84.9378 298° West 485 558 36,000 60 Level Indianapolis Center
11:15PM 40.8239 -85.0106 294° West 485 558 36,100 -540 Climbing Chicago Center
11:16PM 40.8764 -85.1694 294° West 477 549 35,200 -1,080 Descending Chicago Center
11:17PM 40.9406 -85.3631 294° West 476 548 34,000 -1,140 Descending Chicago Center
11:18PM 40.9933 -85.5247 293° West 477 549 33,000 -960 Descending Chicago Center
11:19PM 41.0467 -85.6897 293° West 485 558 32,100 -780 Descending Chicago Center
11:20PM 41.1006 -85.8531 294° West 483 556 31,500 -1,500 Descending Chicago Center
11:21PM 41.1542 -86.0147 294° West 478 550 29,100 -2,460 Descending Chicago Center
11:22PM 41.2042 -86.1722 293° West 464 534 26,600 -2,640 Descending Chicago Center
11:23PM 41.2531 -86.3297 292° West 463 533 23,800 -2,820 Descending Chicago Center
11:24PM 41.3019 -86.4842 293° West 457 526 21,000 -2,700 Descending Chicago Center
11:25PM 41.3519 -86.6375 294° West 455 524 18,400 -2,340 Descending Chicago Center
11:26PM 41.3972 -86.7806 293° West 435 501 16,400 -2,100 Descending Chicago Center
11:27PM 41.4403 -86.9169 293° West 411 473 14,200 -2,280 Descending Chicago Center
11:28PM 41.4833 -87.0500 293° West 399 459 11,900 -1,620 Descending Chicago Center
11:30PM 41.5297 -87.1792 296° West 399 459 11,000 -480 Descending Chicago Center
11:31PM 41.5989 -87.2908 310° West 394 453 11,000  Level Chicago Center
11:32PM 41.6692 -87.3994 311° West 390 449 11,000 -180 Level Chicago Center
11:33PM 41.7519 -87.5300 310° West 391 450 10,700 -360 Descending Chicago Center
11:34PM 41.8183 -87.6211 314° West 345 397 10,300 -840 Descending Chicago Center
11:35PM 41.8819 -87.6919 320° Northwest 307 353 9,100 -1,260 Descending Chicago Center
11:36PM 41.9436 -87.7606 320° Northwest 294 338 7,800 -1,080 Descending Chicago Center
11:37PM 42.0031 -87.8253 321° Northwest 282 325 7,000 -780 Descending Chicago Center
11:37PM 42.0500 -87.8833 317° Northwest 250 288 6,400 -720 Descending Chicago TRACON